Wetterdaten: Woche 22.09.08 - 28.09.08 (KW39)
Datum Zeit Temperatur Luftfeuchte Luftdruck Niederschlag Windrichtung Wind
22.09.2008 00:00 4,8 C 93 % 1019,1 hPa 0,0 l/m N 0,8 km/h (0 Bft)
22.09.2008 01:00 4,7 C 95 % 1019,0 hPa 0,0 l/m N-NW 4,7 km/h (1 Bft)
22.09.2008 02:00 4,7 C 95 % 1018,8 hPa 0,0 l/m NW 3,7 km/h (1 Bft)
22.09.2008 03:00 4,1 C 95 % 1018,3 hPa 0,0 l/m N 0,3 km/h (0 Bft)
22.09.2008 04:00 3,5 C 96 % 1017,9 hPa 0,0 l/m NW 1,9 km/h (1 Bft)
22.09.2008 05:00 3,6 C 96 % 1017,9 hPa 0,0 l/m NW 2,7 km/h (1 Bft)
22.09.2008 06:00 2,8 C 95 % 1017,8 hPa 0,0 l/m N 0,5 km/h (0 Bft)
22.09.2008 07:00 2,7 C 96 % 1018,0 hPa 0,0 l/m N-NO 2,3 km/h (1 Bft)
22.09.2008 08:00 4,5 C 98 % 1017,9 hPa 0,0 l/m N-NW 3,1 km/h (1 Bft)
22.09.2008 09:00 6,3 C 97 % 1018,0 hPa 0,0 l/m N-NO 4,9 km/h (1 Bft)
22.09.2008 10:00 8,5 C 91 % 1017,8 hPa 0,0 l/m N-NW 5,9 km/h (2 Bft)
22.09.2008 11:00 10,3 C 82 % 1017,7 hPa 0,0 l/m NO 9,1 km/h (2 Bft)
22.09.2008 12:00 10,6 C 78 % 1017,5 hPa 0,0 l/m N 10,2 km/h (2 Bft)
22.09.2008 13:00 10,7 C 77 % 1017,2 hPa 0,0 l/m NO 7,2 km/h (2 Bft)
22.09.2008 14:00 11,9 C 72 % 1016,5 hPa 0,0 l/m O 10,6 km/h (2 Bft)
22.09.2008 15:00 10,7 C 85 % 1016,3 hPa 0,0 l/m NW 8,3 km/h (2 Bft)
22.09.2008 16:00 10,9 C 78 % 1016,3 hPa 0,0 l/m N 8,7 km/h (2 Bft)
22.09.2008 17:00 10,9 C 77 % 1016,2 hPa 0,0 l/m NO 5,7 km/h (1 Bft)
22.09.2008 18:00 11,0 C 76 % 1016,3 hPa 0,0 l/m SO 5,2 km/h (1 Bft)
22.09.2008 19:00 10,6 C 80 % 1016,4 hPa 0,0 l/m N-NW 2,1 km/h (1 Bft)
22.09.2008 20:00 9,5 C 85 % 1017,2 hPa 3,4 l/m N-NO 11,1 km/h (2 Bft)
22.09.2008 21:00 8,3 C 91 % 1017,5 hPa 1,4 l/m NW 1,9 km/h (1 Bft)
22.09.2008 22:00 7,9 C 93 % 1017,3 hPa 0,4 l/m N 1,9 km/h (1 Bft)
22.09.2008 23:00 7,7 C 94 % 1017,0 hPa 0,0 l/m N 2,4 km/h (1 Bft)
23.09.2008 00:00 7,6 C 95 % 1016,8 hPa 0,2 l/m N 2,9 km/h (1 Bft)
23.09.2008 01:00 7,6 C 96 % 1016,6 hPa 0,0 l/m N-NO 2,4 km/h (1 Bft)
23.09.2008 02:00 7,6 C 96 % 1016,3 hPa 0,0 l/m N-NO 4,7 km/h (1 Bft)
23.09.2008 03:00 7,6 C 97 % 1015,8 hPa 0,0 l/m N 2,8 km/h (1 Bft)
23.09.2008 04:00 7,6 C 96 % 1015,6 hPa 0,0 l/m N-NO 6,1 km/h (2 Bft)
23.09.2008 05:00 7,5 C 95 % 1015,4 hPa 0,0 l/m N-NO 4,9 km/h (1 Bft)
23.09.2008 06:00 7,4 C 95 % 1015,4 hPa 0,0 l/m N-NO 4,5 km/h (1 Bft)
23.09.2008 07:00 7,2 C 95 % 1015,7 hPa 0,0 l/m N-NO 7,9 km/h (2 Bft)
23.09.2008 08:00 6,8 C 94 % 1016,1 hPa 0,0 l/m O-NO 9,1 km/h (2 Bft)
23.09.2008 09:00 6,8 C 94 % 1016,4 hPa 0,0 l/m O-NO 7,0 km/h (2 Bft)
23.09.2008 10:00 7,2 C 93 % 1016,6 hPa 0,0 l/m NO 9,0 km/h (2 Bft)
23.09.2008 11:00 7,6 C 91 % 1016,7 hPa 0,0 l/m N-NO 8,2 km/h (2 Bft)
23.09.2008 12:00 8,1 C 88 % 1016,6 hPa 0,0 l/m N 7,6 km/h (2 Bft)
23.09.2008 13:00 9,2 C 84 % 1016,3 hPa 0,0 l/m N-NW 11,4 km/h (2 Bft)
23.09.2008 14:00 9,9 C 79 % 1016,0 hPa 0,0 l/m N-NO 11,3 km/h (2 Bft)
23.09.2008 15:00 10,6 C 75 % 1015,5 hPa 0,0 l/m O-NO 8,8 km/h (2 Bft)
23.09.2008 16:00 11,2 C 71 % 1015,0 hPa 0,0 l/m NO 10,5 km/h (2 Bft)
23.09.2008 17:00 11,4 C 70 % 1015,1 hPa 0,0 l/m N-NO 9,8 km/h (2 Bft)
23.09.2008 18:00 11,2 C 72 % 1015,3 hPa 0,0 l/m O-NO 6,8 km/h (2 Bft)
23.09.2008 19:00 9,7 C 80 % 1015,7 hPa 0,0 l/m N 1,2 km/h (1 Bft)
23.09.2008 20:00 7,6 C 87 % 1016,2 hPa 0,0 l/m N 1,7 km/h (1 Bft)
23.09.2008 21:00 6,5 C 90 % 1016,6 hPa 0,0 l/m N-NW 2,7 km/h (1 Bft)
23.09.2008 22:00 5,8 C 91 % 1016,8 hPa 0,0 l/m N-NW 3,7 km/h (1 Bft)
23.09.2008 23:00 5,3 C 93 % 1017,1 hPa 0,0 l/m N-NW 5,3 km/h (1 Bft)
24.09.2008 00:00 5,1 C 94 % 1017,1 hPa 0,0 l/m N-NW 4,9 km/h (1 Bft)
24.09.2008 01:00 4,7 C 94 % 1017,2 hPa 0,0 l/m N-NW 2,8 km/h (1 Bft)
24.09.2008 02:00 4,2 C 94 % 1017,0 hPa 0,0 l/m N 4,3 km/h (1 Bft)
24.09.2008 03:00 4,1 C 96 % 1017,0 hPa 0,0 l/m N-NO 4,4 km/h (1 Bft)
24.09.2008 04:00 4,2 C 97 % 1017,3 hPa 0,0 l/m N 5,5 km/h (1 Bft)
24.09.2008 05:00 4,0 C 97 % 1017,6 hPa 0,0 l/m N-NO 6,8 km/h (2 Bft)
24.09.2008 06:00 4,3 C 98 % 1017,8 hPa 0,0 l/m N-NO 6,3 km/h (2 Bft)
24.09.2008 07:00 4,7 C 98 % 1018,4 hPa 0,0 l/m N 6,1 km/h (2 Bft)
24.09.2008 08:00 4,9 C 98 % 1018,8 hPa 0,0 l/m N-NO 5,7 km/h (1 Bft)
24.09.2008 09:00 5,4 C 98 % 1019,5 hPa 0,0 l/m NO 7,2 km/h (2 Bft)
24.09.2008 10:00 6,5 C 95 % 1019,8 hPa 0,0 l/m N-NO 7,1 km/h (2 Bft)
24.09.2008 11:00 8,6 C 88 % 1019,9 hPa 0,0 l/m NO 9,8 km/h (2 Bft)
24.09.2008 12:00 10,8 C 77 % 1019,8 hPa 0,0 l/m O-NO 15,4 km/h (3 Bft)
24.09.2008 13:00 11,8 C 72 % 1019,6 hPa 0,0 l/m NO 16,1 km/h (3 Bft)
24.09.2008 14:00 12,4 C 66 % 1019,6 hPa 0,0 l/m O-NO 17,2 km/h (3 Bft)
24.09.2008 15:00 12,7 C 66 % 1019,3 hPa 0,0 l/m O-NO 14,6 km/h (3 Bft)
24.09.2008 16:00 12,6 C 68 % 1019,3 hPa 0,0 l/m NO 15,4 km/h (3 Bft)
24.09.2008 17:00 11,6 C 73 % 1019,5 hPa 0,0 l/m NO 14,1 km/h (3 Bft)
24.09.2008 18:00 11,0 C 76 % 1020,0 hPa 0,0 l/m N-NO 12,2 km/h (2 Bft)
24.09.2008 19:00 10,4 C 82 % 1020,7 hPa 0,0 l/m NO 10,1 km/h (2 Bft)
24.09.2008 20:00 9,7 C 85 % 1021,3 hPa 0,0 l/m NO 9,1 km/h (2 Bft)
24.09.2008 21:00 9,3 C 89 % 1021,7 hPa 0,0 l/m N-NO 8,0 km/h (2 Bft)
24.09.2008 22:00 8,9 C 92 % 1022,0 hPa 0,0 l/m N-NO 5,5 km/h (1 Bft)
24.09.2008 23:00 8,7 C 93 % 1022,1 hPa 0,0 l/m N-NO 5,9 km/h (2 Bft)
25.09.2008 00:00 8,7 C 93 % 1022,2 hPa 0,0 l/m N-NO 6,7 km/h (2 Bft)
25.09.2008 01:00 8,7 C 93 % 1022,2 hPa 0,0 l/m N 7,9 km/h (2 Bft)
25.09.2008 02:00 8,8 C 93 % 1022,2 hPa 0,0 l/m NO 8,3 km/h (2 Bft)
25.09.2008 03:00 8,9 C 92 % 1022,1 hPa 0,0 l/m O-NO 7,1 km/h (2 Bft)
25.09.2008 04:00 8,9 C 92 % 1022,1 hPa 0,0 l/m NO 7,8 km/h (2 Bft)
25.09.2008 05:00 8,9 C 92 % 1022,3 hPa 0,0 l/m N-NO 12,6 km/h (3 Bft)
25.09.2008 06:00 8,6 C 92 % 1022,5 hPa 0,0 l/m N-NO 12,6 km/h (3 Bft)
25.09.2008 07:00 8,6 C 92 % 1022,7 hPa 0,0 l/m N-NO 9,8 km/h (2 Bft)
25.09.2008 08:00 8,7 C 92 % 1023,1 hPa 0,0 l/m NO 9,9 km/h (2 Bft)
25.09.2008 09:00 8,9 C 92 % 1023,3 hPa 0,0 l/m N-NO 8,5 km/h (2 Bft)
25.09.2008 10:00 9,4 C 92 % 1023,5 hPa 0,0 l/m NO 8,7 km/h (2 Bft)
25.09.2008 11:00 9,8 C 88 % 1023,5 hPa 0,0 l/m O-NO 8,2 km/h (2 Bft)
25.09.2008 12:00 10,1 C 86 % 1023,7 hPa 0,0 l/m O-NO 9,0 km/h (2 Bft)
25.09.2008 13:00 10,8 C 83 % 1023,9 hPa 0,0 l/m O-NO 11,8 km/h (2 Bft)
25.09.2008 14:00 11,6 C 78 % 1023,9 hPa 0,0 l/m NO 14,4 km/h (3 Bft)
25.09.2008 15:00 11,1 C 81 % 1024,2 hPa 0,0 l/m NO 14,5 km/h (3 Bft)
25.09.2008 16:00 10,9 C 83 % 1024,4 hPa 0,0 l/m NO 13,4 km/h (3 Bft)
25.09.2008 17:00 10,5 C 86 % 1024,7 hPa 0,0 l/m NO 14,5 km/h (3 Bft)
25.09.2008 18:00 9,8 C 90 % 1025,2 hPa 0,0 l/m NO 12,2 km/h (2 Bft)
25.09.2008 19:00 9,7 C 91 % 1025,6 hPa 0,0 l/m NO 13,0 km/h (3 Bft)
25.09.2008 20:00 9,6 C 91 % 1026,0 hPa 0,0 l/m N-NO 12,5 km/h (3 Bft)
25.09.2008 21:00 9,6 C 91 % 1026,5 hPa 0,0 l/m NO 14,1 km/h (3 Bft)
25.09.2008 22:00 9,5 C 91 % 1026,7 hPa 0,0 l/m NO 18,1 km/h (3 Bft)
25.09.2008 23:00 9,3 C 90 % 1026,9 hPa 0,0 l/m NO 17,8 km/h (3 Bft)
26.09.2008 00:00 9,2 C 89 % 1027,1 hPa 0,0 l/m O-NO 17,2 km/h (3 Bft)
26.09.2008 01:00 8,9 C 89 % 1027,2 hPa 0,0 l/m O-NO 16,4 km/h (3 Bft)
26.09.2008 02:00 8,8 C 90 % 1027,1 hPa 0,0 l/m O-NO 16,0 km/h (3 Bft)
26.09.2008 03:00 8,6 C 91 % 1027,2 hPa 0,0 l/m O-NO 17,3 km/h (3 Bft)
26.09.2008 04:00 8,4 C 91 % 1027,4 hPa 0,0 l/m O-NO 16,6 km/h (3 Bft)
26.09.2008 05:00 8,4 C 89 % 1027,5 hPa 0,0 l/m NO 16,9 km/h (3 Bft)
26.09.2008 06:00 8,2 C 89 % 1027,8 hPa 0,0 l/m NO 15,3 km/h (3 Bft)
26.09.2008 07:00 7,7 C 90 % 1028,2 hPa 0,0 l/m O-NO 15,0 km/h (3 Bft)
26.09.2008 08:00 7,5 C 90 % 1028,6 hPa 0,0 l/m O-NO 16,1 km/h (3 Bft)
26.09.2008 09:00 8,5 C 85 % 1029,1 hPa 0,0 l/m O-NO 20,2 km/h (4 Bft)
26.09.2008 10:00 9,9 C 78 % 1029,2 hPa 0,0 l/m O 23,9 km/h (4 Bft)
26.09.2008 11:00 10,7 C 72 % 1029,3 hPa 0,0 l/m O 26,3 km/h (4 Bft)
26.09.2008 12:00 11,4 C 66 % 1029,2 hPa 0,0 l/m O-SO 31,8 km/h (5 Bft)
26.09.2008 13:00 12,4 C 62 % 1029,1 hPa 0,0 l/m O 29,3 km/h (5 Bft)
26.09.2008 14:00 12,5 C 60 % 1029,0 hPa 0,0 l/m O-NO 25,6 km/h (4 Bft)
26.09.2008 15:00 13,1 C 57 % 1028,9 hPa 0,0 l/m O 27,5 km/h (4 Bft)
26.09.2008 16:00 12,9 C 58 % 1028,9 hPa 0,0 l/m O-NO 27,9 km/h (4 Bft)
26.09.2008 17:00 12,5 C 60 % 1029,0 hPa 0,0 l/m O 24,3 km/h (4 Bft)
26.09.2008 18:00 11,6 C 67 % 1029,2 hPa 0,0 l/m O-NO 22,2 km/h (4 Bft)
26.09.2008 19:00 10,1 C 74 % 1029,4 hPa 0,0 l/m O-NO 19,0 km/h (3 Bft)
26.09.2008 20:00 9,1 C 78 % 1029,8 hPa 0,0 l/m O-NO 18,1 km/h (3 Bft)
26.09.2008 21:00 8,7 C 80 % 1030,0 hPa 0,0 l/m O-NO 16,4 km/h (3 Bft)
26.09.2008 22:00 8,4 C 83 % 1030,0 hPa 0,0 l/m O-NO 14,4 km/h (3 Bft)
26.09.2008 23:00 7,8 C 85 % 1029,9 hPa 0,0 l/m O-NO 12,9 km/h (3 Bft)
27.09.2008 00:00 7,3 C 86 % 1029,6 hPa 0,0 l/m O-NO 12,0 km/h (2 Bft)
27.09.2008 01:00 6,9 C 88 % 1029,4 hPa 0,0 l/m O-NO 8,9 km/h (2 Bft)
27.09.2008 02:00 6,2 C 90 % 1029,0 hPa 0,0 l/m N-NO 4,0 km/h (1 Bft)
27.09.2008 03:00 5,5 C 92 % 1028,7 hPa 0,0 l/m N-NO 5,5 km/h (1 Bft)
27.09.2008 04:00 5,9 C 93 % 1028,6 hPa 0,0 l/m NO 10,6 km/h (2 Bft)
27.09.2008 05:00 5,9 C 92 % 1028,6 hPa 0,0 l/m NO 6,6 km/h (2 Bft)
27.09.2008 06:00 5,4 C 93 % 1028,5 hPa 0,0 l/m NO 7,8 km/h (2 Bft)
27.09.2008 07:00 5,4 C 95 % 1028,9 hPa 0,0 l/m NO 9,1 km/h (2 Bft)
27.09.2008 08:00 5,9 C 92 % 1029,2 hPa 0,0 l/m NO 10,2 km/h (2 Bft)
27.09.2008 09:00 6,7 C 90 % 1029,1 hPa 0,0 l/m O-NO 10,9 km/h (2 Bft)
27.09.2008 10:00 9,4 C 81 % 1028,9 hPa 0,0 l/m O-NO 15,6 km/h (3 Bft)
27.09.2008 11:00 11,7 C 70 % 1028,6 hPa 0,0 l/m O-SO 22,1 km/h (4 Bft)
27.09.2008 12:00 13,3 C 62 % 1028,0 hPa 0,0 l/m O 26,1 km/h (4 Bft)
27.09.2008 13:00 13,9 C 57 % 1027,3 hPa 0,0 l/m O 31,1 km/h (5 Bft)
27.09.2008 14:00 14,0 C 55 % 1026,6 hPa 0,0 l/m O-NO 27,8 km/h (4 Bft)
27.09.2008 15:00 14,1 C 54 % 1026,0 hPa 0,0 l/m NO 27,6 km/h (4 Bft)
27.09.2008 16:00 13,8 C 54 % 1025,9 hPa 0,0 l/m O-NO 24,0 km/h (4 Bft)
27.09.2008 17:00 13,6 C 53 % 1025,8 hPa 0,0 l/m O-SO 24,4 km/h (4 Bft)
27.09.2008 18:00 12,7 C 59 % 1025,8 hPa 0,0 l/m O 17,2 km/h (3 Bft)
27.09.2008 19:00 11,3 C 64 % 1026,0 hPa 0,0 l/m O-NO 12,2 km/h (2 Bft)
27.09.2008 20:00 10,0 C 70 % 1026,2 hPa 0,0 l/m O-NO 8,9 km/h (2 Bft)
27.09.2008 21:00 9,1 C 76 % 1026,3 hPa 0,0 l/m O-NO 8,6 km/h (2 Bft)
27.09.2008 22:00 8,3 C 80 % 1025,9 hPa 0,0 l/m NO 7,4 km/h (2 Bft)
27.09.2008 23:00 6,9 C 87 % 1025,5 hPa 0,0 l/m O-NO 5,1 km/h (1 Bft)
28.09.2008 00:00 7,0 C 88 % 1025,1 hPa 0,0 l/m N-NO 7,1 km/h (2 Bft)
28.09.2008 01:00 5,7 C 92 % 1024,9 hPa 0,0 l/m N-NO 5,9 km/h (2 Bft)
28.09.2008 02:00 5,1 C 94 % 1025,0 hPa 0,0 l/m N-NW 5,1 km/h (1 Bft)
28.09.2008 03:00 4,5 C 94 % 1024,8 hPa 0,0 l/m N 4,5 km/h (1 Bft)
28.09.2008 04:00 4,1 C 95 % 1024,7 hPa 0,0 l/m N-NW 4,7 km/h (1 Bft)
28.09.2008 05:00 3,7 C 96 % 1024,6 hPa 0,0 l/m N-NW 4,3 km/h (1 Bft)
28.09.2008 06:00 4,2 C 97 % 1024,9 hPa 0,0 l/m N 4,5 km/h (1 Bft)
28.09.2008 07:00 4,5 C 97 % 1025,2 hPa 0,0 l/m N-NW 4,1 km/h (1 Bft)
28.09.2008 08:00 4,5 C 97 % 1025,6 hPa 0,0 l/m NO 3,9 km/h (1 Bft)
28.09.2008 09:00 4,7 C 98 % 1025,9 hPa 0,0 l/m W 3,7 km/h (1 Bft)
28.09.2008 10:00 5,3 C 97 % 1026,1 hPa 0,0 l/m NW 2,8 km/h (1 Bft)
28.09.2008 11:00 6,0 C 95 % 1026,2 hPa 0,0 l/m O-NO 4,8 km/h (1 Bft)
28.09.2008 12:00 6,7 C 93 % 1026,1 hPa 0,0 l/m SO 3,7 km/h (1 Bft)
28.09.2008 13:00 7,5 C 91 % 1025,6 hPa 0,0 l/m W 5,7 km/h (1 Bft)
28.09.2008 14:00 8,3 C 88 % 1024,9 hPa 0,0 l/m SO 5,7 km/h (1 Bft)
28.09.2008 15:00 9,7 C 83 % 1023,9 hPa 0,0 l/m O-SO 6,7 km/h (2 Bft)
28.09.2008 16:00 10,8 C 79 % 1023,3 hPa 0,0 l/m O-NO 4,3 km/h (1 Bft)
28.09.2008 17:00 11,4 C 76 % 1023,0 hPa 0,0 l/m S 3,7 km/h (1 Bft)
28.09.2008 18:00 10,9 C 81 % 1022,7 hPa 0,0 l/m N 0,7 km/h (0 Bft)
28.09.2008 19:00 8,9 C 85 % 1022,8 hPa 0,0 l/m N 0,5 km/h (0 Bft)
28.09.2008 20:00 7,1 C 89 % 1023,0 hPa 0,0 l/m N 0,3 km/h (0 Bft)
28.09.2008 21:00 6,0 C 90 % 1023,2 hPa 0,0 l/m N 0,8 km/h (0 Bft)
28.09.2008 22:00 5,1 C 92 % 1023,2 hPa 0,0 l/m N 0,1 km/h (0 Bft)
28.09.2008 23:00 4,3 C 92 % 1023,2 hPa 0,0 l/m N 0,5 km/h (0 Bft)
Min-Datum _ 22.09.08 27.09.08 23.09.08 - - 22.09.08
_ Min-Zeit 06:45 17:20 16:45 - - 00:00
Minimum _ 2,3 C 51 % 1014,9 hPa - - 0,0 km/h (0 Bft)
Max-Datum _ 27.09.08 23.09.08 26.09.08 22.09.08 - 26.09.08
_ Max-Zeit 15:05 03:45 20:55 20:35 - 12:30
Maximum _ 14,7 C 100 % 1030,1 hPa 3,4 l/m - 38,6 km/h
O-SO (5 Bft)
Durchschnitt _ 8,4 C 85 % 1022,5 hPa #5,4 l/m O-NO 10,0 km/h (2 Bft)